Regional Weather Roundup
Issued by NWS

Home | Current Version | Previous Version | Text Only | Print | Product List | Glossary Off
Versions: 1 2 3 4 5 6 7 8 9 10 11 12 13 14 15 16 17 18 19 20 21 22 23 24 25 26 27 28 29 30 31 32 33 34 35 36 37 38 39 40 41 42 43 44 45 46 47 48 49 50

000
ASUS43 KMPX 010110
RWRMN
WEATHER ROUNDUP FOR MINNESOTA
NATIONAL WEATHER SERVICE TWIN CITIES/CHANHASSEN MN
800 PM CDT THU JUL 31 2014


NOTE: "FAIR" INDICATES FEW OR NO CLOUDS BELOW 12,000 FEET WITH NO
SIGNIFICANT WEATHER AND/OR OBSTRUCTIONS TO VISIBILITY. N/A MEANS
CURRENT SKY AND/OR WEATHER CONDITIONS ARE NOT AVAILABLE.

MNZ060>063-068>070-010200-
   Twin Cities Metro

CITY           SKY/WX    TMP DP  RH WIND       PRES   REMARKS
TWIN CITIES    PTCLDY    78  56  46 NW6       29.99S
ST PAUL        CLEAR     77  56  48 W7        29.99S
CRYSTAL        CLEAR     79  55  43 W6        29.99R
BLAINE         CLEAR     79  55  44 W6        30.00R
LAKEVILLE      CLEAR     73  61  64 W3        30.01S
EDEN PRAIRIE   CLEAR     78  57  48 NW3       29.99S
SOUTH ST PAUL  CLEAR     78  55  45 W5        29.99S
LAKE ELMO      FAIR      73  59  60 CALM      30.00F
$$
MNZ001>005-007-008-013>017-022>024-027-028-010200-
   Northwest Minnesota

CITY           SKY/WX    TMP DP  RH WIND       PRES   REMARKS
BEMIDJI        CLEAR     73  58  59 CALM      30.01S
HALLOCK        CLEAR     77  63  61 N5        29.99S
ROSEAU           N/A     75  61  60 W6        29.99S
WARROAD        CLEAR     75  63  64 W3        29.99S
THIEF RVR FALL CLEAR     75  61  60 NW5       30.00S
CROOKSTON      CLEAR     79  64  61 CALM      30.00S
FOSSTON        CLEAR     73  61  64 CALM      30.02S
DETROIT LAKES  CLEAR     73  61  64 N5        30.03F
MOORHEAD       CLEAR     79  64  61 E3        30.00F
PARK RAPIDS    CLEAR     74  60  61 NW6       30.01S
$$
MNZ006-009>011-018-025>026-010200-
   North Central Minnesota

CITY           SKY/WX    TMP DP  RH WIND       PRES   REMARKS
BAUDETTE       CLEAR     71  61  70 CALM      30.00S
FLAG ISLAND    PTCLDY    73  61  64 S5        29.97S
INTL FALLS     CLEAR     69  58  67 NW3       29.98S
WASKISH        CLEAR     70  61  73 CALM      29.99F
BIG FORK       CLEAR     72  55  56 NW2       30.00S
LONGVILLE      CLEAR     70  63  78 CALM      30.00S
GRAND RAPIDS   CLEAR     73  57  56 CALM      29.99S
CRANE LAKE     CLEAR     64  61  88 CALM      29.99S
ORR            CLEAR     64  57  77 CALM      29.97S
COOK           CLEAR     68  57  68 CALM      29.99S
$$
MNZ012-019>021-037-010200-
   Northeast Minnesota

CITY           SKY/WX    TMP DP  RH WIND       PRES   REMARKS
DULUTH         CLEAR     73  57  57 NW3       29.98R
ELY            CLEAR     68  52  56 CALM      29.99S
HIBBING        CLEAR     73  57  57 CALM      29.99R
EVELETH        CLEAR     72  57  60 CALM      30.00R
DULUTH HARBOR  CLEAR     77  55  47 NW6       29.95S
TWO HARBORS    CLEAR     70  55  60 CALM      29.95S
SILVER BAY     CLEAR     66  57  72 CALM      29.95S
GRAND MARAIS     N/A     54  50  86 CALM      29.94R
G MARAIS ARPRT CLEAR     64  45  48 NW3       29.99S
$$
MNZ029>031-032-039>041-046>048-054>057-064-010200-
   West Central Minnesota

CITY           SKY/WX    TMP DP  RH WIND       PRES   REMARKS
FERGUS FALLS   CLEAR     75  57  53 CALM      30.00S
WHEATON        CLEAR     73  61  64 CALM      30.03S
MORRIS         CLEAR     75  64  69 CALM      30.01S
ALEXANDRIA     CLEAR     76  59  55 W5        30.03F
ELBOW LAKE     FAIR      75  61  62 NW3       30.01S
WADENA         CLEAR     72  61  68 NW3       30.01S
GLENWOOD       CLEAR     75  61  60 NW3       30.03S
APPLETON       CLEAR     77  63  61 CALM      30.01S
BENSON         CLEAR     75  63  64 CALM      30.01F
ORTONVILLE     CLEAR     75  61  60 CALM      30.02S
MADISON        CLEAR     79  63  57 CALM      30.02S
WILLMAR        FAIR      75  57  53 CALM      30.03S
$$
MNZ033>034-036-042>043-049>051-058-059-010200-
   Central Minnesota

CITY           SKY/WX    TMP DP  RH WIND       PRES   REMARKS
ST CLOUD       CLEAR     79  57  46 NW3       29.99S
SAUK CENTRE    FAIR      75  60  57 W3        30.02S
PAYNESVILLE    CLEAR     73  56  54 W3        30.02S HAZE
AITKIN         PTCLDY    75  64  69 CALM      29.98S
PINE RIVER     PTCLDY    75  63  64 N3        30.03S
BRAINERD       PTCLDY    75  60  59 W5        29.99S
STAPLES        CLEAR     73  59  60 NW5       30.01R
LONG PRAIRIE   FAIR      73  59  60 W3        30.02S
LITTLE FALLS   CLEAR     77  57  50 W3        30.00S
LITCHFIELD     CLEAR     75  61  60 CALM      30.02S
BUFFALO        CLEAR     76  56  50 CALM      30.01S
MAPLE LAKE     CLEAR     75  60  60 CALM      30.01S
$$
MNZ037-044-045-052-053-010200-
   East Central Minnesota

CITY           SKY/WX    TMP DP  RH WIND       PRES   REMARKS
PRINCETON      CLEAR     77  61  57 W3        30.00S
MORA           PTCLDY    73  61  64 CALM      30.00S
CAMBRIDGE      PTCLDY    79  63  57 CALM      29.98S
RUSH CITY      CLEAR     75  61  62 CALM      29.99S
MOOSE LAKE     CLEAR     73  64  73 CALM      29.96S
HINCKLEY       FAIR      73  64  73 W5        29.98S
CLOQUET        CLEAR     72  61  68 CALM      29.98S
MCGREGOR       CLEAR     73  63  68 CALM      29.99S
$$
MNZ071>073-080-081-089-090-097-098-010200-
   Southwest Minnesota

CITY           SKY/WX    TMP DP  RH WIND       PRES   REMARKS
MONTEVIDEO     CLEAR     75  61  60 CALM      30.02S
GRANITE FALLS  CLEAR     75  61  61 CALM      30.03S
CANBY          CLEAR     75  60  58 CALM      30.03F
MARSHALL       CLEAR     75  57  53 N5        30.02S
REDWOOD FALLS  CLEAR     77  57  50 CALM      30.01S
OLIVIA         CLEAR     73  61  64 CALM      30.01S
PIPESTONE      CLEAR     75  57  53 NE3       30.05S
WINDOM         PTCLDY    73  61  64 W3        30.04S
WORTHINGTON    PTCLDY    73  63  68 W5        30.06S
JACKSON        MOCLDY    73  61  64 W3        30.05S
TRACY          CLEAR     75  59  56 CALM      30.04S
SLAYTON        CLEAR     74  56  53 CALM      30.05S
$$
MNZ065>067-074>077-082>085-091>093-010200-
   South Central Minnesota

CITY           SKY/WX    TMP DP  RH WIND       PRES   REMARKS
MANKATO        CLEAR     77  54  44 W3        30.02S
NEW ULM        CLEAR     75  57  53 CALM      30.02S
ST JAMES       CLEAR     81  63  54 CALM      30.03S
FAIRMONT       MOCLDY    73  59  60 E3        30.03S
GLENCOE        CLEAR     76  57  50 CALM      30.00F
FARIBAULT      CLEAR     75  57  53 CALM      30.02S
OWATONNA       CLEAR     73  61  64 CALM      30.02F
WASECA         CLEAR     72  55  56 CALM      30.04S
ALBERT LEA     CLEAR     73  61  64 CALM      30.03S
$$
MNZ078>079-086>088-094>096-010200-
   Southeast Minnesota

CITY           SKY/WX    TMP DP  RH WIND       PRES   REMARKS
ROCHESTER      CLEAR     71  61  70 W5        30.03F
RED WING       CLEAR     75  63  64 CALM      29.98S
STANTON        CLEAR     76  58  54 W5        29.99F
DODGE CENTER   CLEAR     73  61  64 W3        30.03S
WINONA         CLEAR     75  59  57 CALM      30.00S
AUSTIN         CLEAR     73  55  53 CALM      30.03S
PRESTON        CLEAR     72  63  74 W5        30.04S
$$
ABBREVIATIONS USED IN REMARKS
   TC - TEMPERATURES IN CELSIUS
  WCI - WIND CHILL INDEX
   HX - HEAT INDEX
  VSB - VISIBILITY
$$


USA.gov is the U.S. government's official web portal to all federal, state and local government web resources and services.